• En España
  • Lista de países
  • Para 7 días
  • Temperatura del agua
  • Mapa Satelital
  • El tiempo en el mapa
  • Informadores
  • user-avatar
    Iniciar sesión

    Tiempo cada hora Sao Bras de Alportel

    Hoy, 18 Enero, Jueves

    Tiempo Temperatura Precipitaciones Viento Presión Humedad
    00:00 +6°C° 0 mm 5 mps 745 mmHg 90%
    01:00 +6°C° 0 mm 5 mps 745 mmHg 90%
    02:00 +6°C° 0 mm 5 mps 745 mmHg 90%
    03:00 +5°C° 0 mm 4 mps 744 mmHg 89%
    04:00 +5°C° 0 mm 4 mps 744 mmHg 88%
    05:00 +5°C° 0 mm 4 mps 744 mmHg 87%
    06:00 +6°C° 0 mm 4 mps 745 mmHg 82%
    07:00 +6°C° 0 mm 4 mps 745 mmHg 78%
    08:00 +7°C° 0 mm 4 mps 745 mmHg 73%
    09:00 +11°C° 0 mm 3 mps 745 mmHg 66%
    10:00 +13°C° 0 mm 3 mps 745 mmHg 59%
    11:00 +16°C° 0 mm 3 mps 745 mmHg 51%
    12:00 +17°C° 0 mm 2 mps 745 mmHg 52%
    13:00 +17°C° 0 mm 2 mps 744 mmHg 52%
    14:00 +18°C° 0 mm 2 mps 744 mmHg 53%
    15:00 +16°C° 0 mm 2 mps 744 mmHg 62%
    16:00 +14°C° 0 mm 2 mps 744 mmHg 72%
    17:00 +12°C° 0 mm 2 mps 744 mmHg 81%
    18:00 +10°C° 0 mm 3 mps 744 mmHg 81%
    19:00 +10°C° 0 mm 4 mps 744 mmHg 82%
    20:00 +8°C° 0 mm 4 mps 744 mmHg 82%
    21:00 +7°C° 0 mm 5 mps 744 mmHg 83%
    22:00 +7°C° 0 mm 5 mps 744 mmHg 84%
    23:00 +6°C° 0 mm 5 mps 744 mmHg 85%

    Mañana, 19 Enero, Viernes

    Tiempo Temperatura Precipitaciones Viento Presión Humedad
    00:00 +6°C° 0 mm 5 mps 744 mmHg 86%
    01:00 +5°C° 0 mm 4 mps 744 mmHg 87%
    02:00 +5°C° 0 mm 4 mps 744 mmHg 88%
    03:00 +5°C° 0 mm 4 mps 744 mmHg 88%
    04:00 +4°C° 0 mm 4 mps 743 mmHg 89%
    05:00 +4°C° 0 mm 4 mps 743 mmHg 89%
    06:00 +5°C° 0 mm 4 mps 744 mmHg 86%
    07:00 +6°C° 0 mm 4 mps 744 mmHg 83%
    08:00 +6°C° 0 mm 4 mps 745 mmHg 80%
    09:00 +8°C° 0 mm 4 mps 745 mmHg 72%
    10:00 +12°C° 0 mm 4 mps 745 mmHg 65%
    11:00 +14°C° 0 mm 4 mps 746 mmHg 57%
    12:00 +15°C° 0 mm 4 mps 746 mmHg 55%
    13:00 +17°C° 0 mm 4 mps 745 mmHg 54%
    14:00 +17°C° 0 mm 3 mps 745 mmHg 52%
    15:00 +16°C° 0 mm 3 mps 746 mmHg 61%
    16:00 +13°C° 0 mm 3 mps 746 mmHg 69%
    17:00 +12°C° 0 mm 2 mps 746 mmHg 78%
    18:00 +10°C° 0 mm 3 mps 747 mmHg 81%
    19:00 +10°C° 0 mm 4 mps 748 mmHg 83%
    20:00 +8°C° 0 mm 4 mps 749 mmHg 86%
    21:00 +8°C° 0 mm 4 mps 749 mmHg 87%
    22:00 +7°C° 0 mm 4 mps 749 mmHg 89%
    23:00 +7°C° 0 mm 4 mps 749 mmHg 90%

    Pasado mañana, 20 Enero, Sábado

    Tiempo Temperatura Precipitaciones Viento Presión Humedad
    00:00 +6°C° 0 mm 4 mps 749 mmHg 90%
    01:00 +7°C° 0 mm 3 mps 749 mmHg 90%
    02:00 +7°C° 0 mm 3 mps 749 mmHg 89%
    03:00 +5°C° 0 mm 3 mps 749 mmHg 89%
    04:00 +5°C° 0 mm 3 mps 749 mmHg 89%
    05:00 +5°C° 0 mm 4 mps 749 mmHg 88%
    06:00 +5°C° 0 mm 3 mps 750 mmHg 85%
    07:00 +7°C° 0 mm 3 mps 750 mmHg 82%
    08:00 +8°C° 0 mm 3 mps 750 mmHg 78%
    09:00 +10°C° 0 mm 3 mps 751 mmHg 69%
    10:00 +13°C° 0 mm 3 mps 751 mmHg 59%
    11:00 +16°C° 0 mm 2 mps 751 mmHg 49%
    12:00 +17°C° 0 mm 2 mps 751 mmHg 48%
    13:00 +17°C° 0 mm 2 mps 750 mmHg 48%
    14:00 +18°C° 0 mm 2 mps 750 mmHg 47%
    15:00 +16°C° 0 mm 2 mps 750 mmHg 54%
    16:00 +13°C° 0 mm 3 mps 750 mmHg 62%
    17:00 +11°C° 0 mm 3 mps 750 mmHg 70%
    18:00 +10°C° 0 mm 3 mps 751 mmHg 72%
    19:00 +10°C° 0 mm 3 mps 751 mmHg 74%
    20:00 +8°C° 0 mm 4 mps 752 mmHg 75%
    21:00 +8°C° 0 mm 4 mps 752 mmHg 80%
    22:00 +7°C° 0 mm 4 mps 752 mmHg 85%
    23:00 +7°C° 0 mm 4 mps 752 mmHg 91%

    21 Enero, Domingo

    Tiempo Temperatura Precipitaciones Viento Presión Humedad
    00:00 +7°C° 0 mm 4 mps 752 mmHg 92%
    01:00 +6°C° 0 mm 4 mps 751 mmHg 93%
    02:00 +6°C° 0 mm 4 mps 751 mmHg 94%
    03:00 +7°C° 0 mm 3 mps 751 mmHg 94%
    04:00 +7°C° 0 mm 3 mps 751 mmHg 93%
    05:00 +5°C° 0 mm 3 mps 751 mmHg 93%
    06:00 +7°C° 0 mm 3 mps 752 mmHg 91%
    07:00 +8°C° 0 mm 3 mps 752 mmHg 88%
    08:00 +8°C° 0 mm 3 mps 752 mmHg 86%
    09:00 +11°C° 0 mm 3 mps 752 mmHg 77%
    10:00 +13°C° 0 mm 3 mps 752 mmHg 69%
    11:00 +17°C° 0 mm 2 mps 753 mmHg 60%
    12:00 +18°C° 0 mm 2 mps 752 mmHg 59%
    13:00 +19°C° 0 mm 2 mps 752 mmHg 57%
    14:00 +19°C° 0 mm 2 mps 751 mmHg 56%
    15:00 +17°C° 0 mm 2 mps 751 mmHg 65%
    16:00 +15°C° 0 mm 2 mps 751 mmHg 74%
    17:00 +14°C° 0 mm 2 mps 751 mmHg 84%
    18:00 +13°C° 0 mm 2 mps 752 mmHg 85%
    19:00 +12°C° 0 mm 2 mps 752 mmHg 86%
    20:00 +10°C° 0 mm 3 mps 752 mmHg 87%
    21:00 +10°C° 0 mm 3 mps 752 mmHg 87%
    22:00 +10°C° 0 mm 3 mps 752 mmHg 88%
    23:00 +9°C° 0 mm 3 mps 752 mmHg 88%

    22 Enero, Lunes

    Tiempo Temperatura Precipitaciones Viento Presión Humedad
    00:00 +9°C° 0 mm 3 mps 751 mmHg 88%
    01:00 +9°C° 0 mm 3 mps 751 mmHg 88%
    02:00 +8°C° 0 mm 3 mps 751 mmHg 88%
    03:00 +8°C° 0 mm 3 mps 751 mmHg 88%
    04:00 +8°C° 0 mm 3 mps 751 mmHg 88%
    05:00 +8°C° 0 mm 3 mps 751 mmHg 88%
    06:00 +8°C° 0 mm 3 mps 751 mmHg 84%
    07:00 +9°C° 0 mm 3 mps 751 mmHg 81%
    08:00 +10°C° 0 mm 3 mps 752 mmHg 78%
    09:00 +13°C° 0 mm 3 mps 752 mmHg 70%
    10:00 +16°C° 0 mm 2 mps 752 mmHg 61%
    11:00 +18°C° 0 mm 2 mps 752 mmHg 52%
    12:00 +19°C° 0 mm 2 mps 751 mmHg 50%
    13:00 +20°C° 0 mm 2 mps 751 mmHg 49%
    14:00 +21°C° 0 mm 2 mps 750 mmHg 47%
    15:00 +18°C° 0 mm 2 mps 750 mmHg 56%
    16:00 +16°C° 0 mm 1 mps 750 mmHg 66%
    17:00 +14°C° 0 mm 1 mps 750 mmHg 75%
    18:00 +13°C° 0 mm 2 mps 751 mmHg 78%
    19:00 +12°C° 0 mm 2 mps 751 mmHg 80%
    20:00 +10°C° 0 mm 2 mps 751 mmHg 83%
    21:00 +10°C° 0 mm 2 mps 751 mmHg 84%
    22:00 +9°C° 0 mm 2 mps 751 mmHg 84%
    23:00 +9°C° 0 mm 2 mps 751 mmHg 84%

    23 Enero, Martes

    Tiempo Temperatura Precipitaciones Viento Presión Humedad
    00:00 +9°C° 0 mm 3 mps 751 mmHg 84%
    01:00 +8°C° 0 mm 3 mps 750 mmHg 84%
    02:00 +8°C° 0 mm 3 mps 750 mmHg 83%
    03:00 +8°C° 0 mm 3 mps 750 mmHg 82%
    04:00 +8°C° 0 mm 3 mps 750 mmHg 81%
    05:00 +7°C° 0 mm 3 mps 750 mmHg 80%
    06:00 +9°C° 0 mm 3 mps 750 mmHg 77%
    07:00 +10°C° 0 mm 3 mps 750 mmHg 73%
    08:00 +11°C° 0 mm 3 mps 751 mmHg 70%
    09:00 +14°C° 0 mm 3 mps 751 mmHg 62%
    10:00 +17°C° 0 mm 3 mps 750 mmHg 53%
    11:00 +20°C° 0 mm 4 mps 750 mmHg 45%
    12:00 +20°C° 0 mm 3 mps 750 mmHg 44%
    13:00 +21°C° 0 mm 3 mps 750 mmHg 43%
    14:00 +21°C° 0 mm 3 mps 749 mmHg 41%
    15:00 +19°C° 0 mm 2 mps 749 mmHg 50%
    16:00 +16°C° 0 mm 2 mps 749 mmHg 60%
    17:00 +14°C° 0 mm 2 mps 749 mmHg 69%
    18:00 +13°C° 0 mm 2 mps 749 mmHg 70%
    19:00 +12°C° 0 mm 2 mps 749 mmHg 72%
    20:00 +10°C° 0 mm 2 mps 749 mmHg 73%
    21:00 +10°C° 0 mm 2 mps 749 mmHg 72%
    22:00 +10°C° 0 mm 2 mps 749 mmHg 71%
    23:00 +10°C° 0 mm 3 mps 749 mmHg 70%
    Mostrar más